| time (UTC) | temp F | wind direction | speed MPH | gust MPH | rain 1hr in | rain 24hr in | rain mn in | humidity % | barometer mb |
| 20260506155130 | 48 | 258 | 0.0 | 3.0 | 0.00 | 0.00 | 0.00 | 41 | 1013.1 |
| 20260506154130 | 48 | 213 | 1.0 | 5.0 | 0.00 | 0.00 | 0.00 | 41 | 1013.0 |
| 20260506153130 | 48 | 215 | 1.0 | 4.0 | 0.00 | 0.00 | 0.00 | 40 | 1013.0 |
| 20260506152130 | 49 | 213 | 2.0 | 6.0 | 0.00 | 0.00 | 0.00 | 40 | 1012.9 |
| 20260506151130 | 49 | 216 | 4.0 | 6.0 | 0.00 | 0.00 | 0.00 | 38 | 1012.9 |
| 20260506150130 | 49 | 233 | 2.0 | 12.0 | 0.00 | 0.00 | 0.00 | 36 | 1012.8 |
| 20260506145130 | 50 | 354 | 3.0 | 9.0 | 0.00 | 0.00 | 0.00 | 37 | 1012.7 |
| 20260506144130 | 50 | 251 | 4.0 | 12.0 | 0.00 | 0.00 | 0.00 | 36 | 1012.7 |
| 20260506143130 | 50 | 265 | 6.0 | 8.0 | 0.00 | 0.00 | 0.00 | 37 | 1012.6 |
| 20260506142130 | 50 | 241 | 3.0 | 10.0 | 0.00 | 0.00 | 0.00 | 39 | 1012.5 |
| 20260506141130 | 50 | 21 | 4.0 | 4.0 | 0.00 | 0.00 | 0.00 | 39 | 1012.3 |
| 20260506140130 | 50 | 237 | 3.0 | 10.0 | 0.00 | 0.00 | 0.00 | 37 | 1012.2 |
| 20260506135130 | 50 | 345 | 0.0 | 6.0 | 0.00 | 0.00 | 0.00 | 40 | 1012.2 |
| 20260506134130 | 50 | 324 | 3.0 | 7.0 | 0.00 | 0.00 | 0.00 | 40 | 1012.2 |
| 20260506133130 | 50 | 15 | 1.0 | 11.0 | 0.00 | 0.00 | 0.00 | 40 | 1012.1 |
| 20260506132130 | 51 | 250 | 6.0 | 11.0 | 0.00 | 0.00 | 0.00 | 40 | 1011.9 |
| 20260506131130 | 51 | 226 | 5.0 | 10.0 | 0.00 | 0.00 | 0.00 | 41 | 1011.9 |
| 20260506130130 | 50 | 247 | 6.0 | 12.0 | 0.00 | 0.00 | 0.00 | 41 | 1012.0 |
| 20260506125130 | 50 | 270 | 5.0 | 10.0 | 0.00 | 0.00 | 0.00 | 40 | 1011.6 |
| 20260506124130 | 50 | 233 | 6.0 | 11.0 | 0.00 | 0.00 | 0.00 | 39 | 1011.6 |
| 20260506123130 | 50 | 243 | 8.0 | 12.0 | 0.00 | 0.00 | 0.00 | 38 | 1011.5 |
| 20260506122130 | 50 | 16 | 2.0 | 8.0 | 0.00 | 0.00 | 0.00 | 40 | 1011.4 |
| 20260506121130 | 50 | 229 | 4.0 | 12.0 | 0.00 | 0.00 | 0.00 | 38 | 1011.4 |
| 20260506120130 | 51 | 230 | 4.0 | 10.0 | 0.00 | 0.00 | 0.00 | 40 | 1011.4 |
| 20260506115130 | 51 | 258 | 6.0 | 12.0 | 0.00 | 0.00 | 0.00 | 39 | 1011.3 |
| 20260506114130 | 51 | 260 | 4.0 | 5.0 | 0.00 | 0.00 | 0.00 | 41 | 1011.1 |
| 20260506113130 | 50 | 240 | 5.0 | 14.0 | 0.00 | 0.00 | 0.00 | 42 | 1011.1 |
| 20260506112130 | 49 | 206 | 6.0 | 12.0 | 0.00 | 0.00 | 0.00 | 43 | 1010.9 |
| 20260506111130 | 49 | 232 | 3.0 | 9.0 | 0.00 | 0.00 | 0.00 | 43 | 1011.0 |
| 20260506110130 | 50 | 232 | 7.0 | 8.0 | 0.00 | 0.00 | 0.00 | 41 | 1011.0 |
| 20260506105130 | 51 | 316 | 2.0 | 9.0 | 0.00 | 0.00 | 0.00 | 40 | 1010.8 |
| 20260506104131 | 51 | 15 | 0.0 | 13.0 | 0.00 | 0.00 | 0.00 | 42 | 1010.6 |
| 20260506103130 | 50 | 209 | 5.0 | 9.0 | 0.00 | 0.00 | 0.00 | 44 | 1010.5 |
| 20260506102130 | 49 | 206 | 3.0 | 11.0 | 0.00 | 0.00 | 0.00 | 45 | 1010.5 |
| 20260506101130 | 49 | 232 | 2.0 | 9.0 | 0.00 | 0.00 | 0.00 | 45 | 1010.5 |
| 20260506100130 | 50 | 258 | 7.0 | 10.0 | 0.00 | 0.00 | 0.00 | 41 | 1010.4 |
| 20260506095131 | 50 | 305 | 4.0 | 17.0 | 0.00 | 0.00 | 0.00 | 44 | 1010.2 |
| 20260506094130 | 50 | 236 | 8.0 | 14.0 | 0.00 | 0.00 | 0.00 | 45 | 1010.1 |
| 20260506093131 | 49 | 219 | 6.0 | 9.0 | 0.00 | 0.08 | 0.00 | 47 | 1010.0 |
| 20260506092131 | 48 | 226 | 8.0 | 9.0 | 0.00 | 0.08 | 0.00 | 47 | 1009.9 |
| 20260506091131 | 48 | 246 | 5.0 | 14.0 | 0.00 | 0.08 | 0.00 | 48 | 1009.9 |
| 20260506090131 | 47 | 240 | 8.0 | 11.0 | 0.00 | 0.08 | 0.00 | 53 | 1009.8 |
| 20260506085131 | 47 | 246 | 4.0 | 5.0 | 0.00 | 0.08 | 0.00 | 52 | 1009.9 |
| 20260506084131 | 47 | 274 | 8.0 | 8.0 | 0.00 | 0.08 | 0.00 | 51 | 1009.7 |
| 20260506083131 | 47 | 227 | 4.0 | 12.0 | 0.00 | 0.08 | 0.00 | 51 | 1009.6 |
| 20260506082131 | 47 | 217 | 3.0 | 9.0 | 0.00 | 0.08 | 0.00 | 51 | 1009.5 |
| 20260506081131 | 47 | 233 | 6.0 | 8.0 | 0.00 | 0.08 | 0.00 | 50 | 1009.5 |
| 20260506080131 | 47 | 286 | 2.0 | 8.0 | 0.00 | 0.08 | 0.00 | 53 | 1009.4 |
| 20260506073131 | 46 | 199 | 2.0 | 9.0 | 0.00 | 0.08 | 0.00 | 56 | 1009.1 |
| 20260506072131 | 47 | 234 | 3.0 | 9.0 | 0.00 | 0.08 | 0.00 | 56 | 1009.0 |
| 20260506071131 | 47 | 258 | 2.0 | 10.0 | 0.00 | 0.08 | 0.00 | 57 | 1008.9 |
| 20260506070131 | 47 | 213 | 4.0 | 11.0 | 0.00 | 0.08 | 0.00 | 57 | 1008.7 |
| 20260506062131 | 45 | 282 | 2.0 | 6.0 | 0.00 | 0.08 | 0.00 | 71 | 1008.4 |
| 20260506061131 | 44 | 12 | 3.0 | 9.0 | 0.00 | 0.08 | 0.00 | 76 | 1008.4 |
| 20260506060131 | 43 | 29 | 0.0 | 7.0 | 0.00 | 0.08 | 0.00 | 80 | 1008.2 |
| 20260506051131 | 39 | 19 | 3.0 | 5.0 | 0.00 | 0.08 | 0.00 | 99 | 1008.1 |
| 20260506050131 | 38 | 324 | 0.0 | 5.0 | 0.00 | 0.08 | 0.00 | 99 | 1008.2 |
| 20260506045131 | 37 | 180 | 4.0 | 5.0 | 0.00 | 0.08 | 0.00 | 99 | 1008.0 |
| 20260506044131 | 37 | 267 | 3.0 | 4.0 | 0.00 | 0.08 | 0.00 | 99 | 1007.9 |
| 20260506043131 | 36 | 234 | 1.0 | 3.0 | 0.00 | 0.08 | 0.00 | 99 | 1007.8 |
| 20260506042131 | 35 | 198 | 2.0 | 4.0 | 0.00 | 0.08 | 0.00 | 99 | 1007.8 |
| 20260506041131 | 34 | 202 | 2.0 | 4.0 | 0.00 | 0.08 | 0.00 | 99 | 1007.7 |
| 20260506040131 | 33 | 191 | 2.0 | 5.0 | 0.00 | 0.08 | 0.00 | 99 | 1007.7 |
| 20260506035131 | 32 | 223 | 1.0 | 3.0 | 0.00 | 0.08 | 0.00 | 99 | 1007.8 |
| 20260506034131 | 31 | 209 | 1.0 | 3.0 | 0.00 | 0.08 | 0.00 | 99 | 1007.6 |
| 20260506033131 | 31 | 217 | 1.0 | 2.0 | 0.00 | 0.08 | 0.00 | 99 | 1007.5 |
| 20260506032131 | 30 | 223 | 1.0 | 2.0 | 0.00 | 0.08 | 0.00 | 99 | 1007.6 |
| 20260506031131 | 30 | 219 | 0.0 | 2.0 | 0.00 | 0.08 | 0.00 | 99 | 1007.4 |
| 20260506030131 | 29 | 205 | 1.0 | 2.0 | 0.00 | 0.08 | 0.00 | 99 | 1007.5 |
| 20260506025131 | 29 | 178 | 1.0 | 2.0 | 0.00 | 0.08 | 0.00 | 99 | 1007.3 |
| 20260506024133 | 28 | 185 | 1.0 | 2.0 | 0.00 | 0.08 | 0.00 | 99 | 1007.2 |
| 20260506023131 | 28 | 257 | 1.0 | 3.0 | 0.00 | 0.08 | 0.00 | 99 | 1007.1 |
| 20260506022131 | 28 | 205 | 1.0 | 2.0 | 0.00 | 0.08 | 0.00 | 99 | 1007.0 |
| 20260506021131 | 28 | 178 | 1.0 | 2.0 | 0.00 | 0.08 | 0.00 | 99 | 1006.9 |
| 20260506020131 | 28 | 216 | 1.0 | 2.0 | 0.00 | 0.08 | 0.00 | 99 | 1006.9 |
| 20260506015131 | 28 | 267 | 0.0 | 2.0 | 0.00 | 0.08 | 0.00 | 99 | 1006.8 |
| 20260506014131 | 28 | 9 | 0.0 | 1.0 | 0.00 | 0.08 | 0.00 | 99 | 1006.9 |
| 20260506013131 | 28 | 268 | 0.0 | 0.0 | 0.00 | 0.08 | 0.00 | 99 | 1006.8 |
| 20260506012131 | 28 | 21 | 0.0 | 1.0 | 0.00 | 0.08 | 0.00 | 99 | 1006.6 |
| 20260506011131 | 29 | 21 | 0.0 | 0.0 | 0.00 | 0.08 | 0.00 | 99 | 1006.6 |
| 20260506010131 | 29 | 178 | 3.0 | 3.0 | 0.00 | 0.08 | 0.00 | 99 | 1006.5 |
| 20260506005132 | 29 | 202 | 1.0 | 3.0 | 0.00 | 0.08 | 0.00 | 99 | 1006.3 |
| 20260506004132 | 29 | 187 | 1.0 | 2.0 | 0.00 | 0.08 | 0.00 | 99 | 1006.2 |
| 20260506003132 | 29 | 178 | 0.0 | 1.0 | 0.00 | 0.08 | 0.00 | 99 | 1006.1 |
| 20260506002132 | 29 | 178 | 0.0 | 2.0 | 0.00 | 0.08 | 0.00 | 99 | 1006.0 |
| 20260506001132 | 30 | 178 | 1.0 | 2.0 | 0.00 | 0.08 | 0.00 | 99 | 1006.0 |
| 20260506000132 | 30 | 178 | 0.0 | 2.0 | 0.00 | 0.08 | 0.00 | 99 | 1005.8 |
| 20260505235132 | 30 | 178 | 0.0 | 1.0 | 0.00 | 0.08 | 0.00 | 99 | 1005.8 |
| 20260505234132 | 30 | 178 | 0.0 | 1.0 | 0.00 | 0.08 | 0.00 | 99 | 1005.8 |
| 20260505233132 | 30 | 178 | 0.0 | 1.0 | 0.00 | 0.08 | 0.00 | 99 | 1005.9 |
| 20260505232132 | 30 | 178 | 0.0 | 1.0 | 0.00 | 0.08 | 0.00 | 99 | 1005.9 |
| 20260505231132 | 30 | 178 | 0.0 | 1.0 | 0.00 | 0.08 | 0.00 | 99 | 1005.7 |
| 20260505230132 | 30 | 178 | 1.0 | 2.0 | 0.00 | 0.08 | 0.00 | 99 | 1005.7 |
| 20260505225132 | 30 | 178 | 1.0 | 2.0 | 0.00 | 0.08 | 0.00 | 99 | 1005.7 |
| 20260505224132 | 30 | 178 | 1.0 | 2.0 | 0.00 | 0.08 | 0.00 | 99 | 1005.6 |
| 20260505223132 | 30 | 21 | 1.0 | 2.0 | 0.00 | 0.08 | 0.00 | 99 | 1005.7 |
| 20260505222132 | 31 | 21 | 1.0 | 2.0 | 0.00 | 0.08 | 0.00 | 99 | 1005.5 |
| 20260505221132 | 31 | 178 | 1.0 | 1.0 | 0.00 | 0.08 | 0.00 | 99 | 1005.5 |
| 20260505220132 | 31 | 18 | 0.0 | 1.0 | 0.00 | 0.08 | 0.00 | 99 | 1005.5 |
| 20260505215132 | 31 | 21 | 0.0 | 2.0 | 0.00 | 0.08 | 0.08 | 99 | 1005.5 |
| 20260505214132 | 32 | 21 | 1.0 | 1.0 | 0.00 | 0.08 | 0.08 | 99 | 1005.5 |
| 20260505213132 | 32 | 21 | 1.0 | 1.0 | 0.00 | 0.08 | 0.08 | 99 | 1005.2 |
| 20260505212132 | 32 | 220 | 0.0 | 2.0 | 0.00 | 0.08 | 0.08 | 99 | 1005.2 |
| 20260505211132 | 33 | 181 | 1.0 | 3.0 | 0.00 | 0.08 | 0.08 | 99 | 1005.2 |
| 20260505210132 | 33 | 33 | 1.0 | 2.0 | 0.00 | 0.08 | 0.08 | 99 | 1005.1 |
| 20260505205132 | 33 | 19 | 1.0 | 3.0 | 0.00 | 0.08 | 0.08 | 99 | 1005.1 |
| 20260505204132 | 34 | 21 | 1.0 | 3.0 | 0.00 | 0.08 | 0.08 | 99 | 1005.1 |
| 20260505203132 | 34 | 178 | 1.0 | 2.0 | 0.00 | 0.08 | 0.08 | 99 | 1005.0 |
| 20260505202132 | 34 | 219 | 1.0 | 2.0 | 0.00 | 0.08 | 0.08 | 99 | 1005.0 |
| 20260505201132 | 34 | 223 | 0.0 | 3.0 | 0.00 | 0.08 | 0.08 | 99 | 1004.9 |
| 20260505200132 | 34 | 233 | 0.0 | 2.0 | 0.00 | 0.08 | 0.08 | 99 | 1004.9 |
| 20260505195132 | 34 | 219 | 0.0 | 4.0 | 0.00 | 0.08 | 0.08 | 99 | 1004.9 |
| 20260505194132 | 35 | 355 | 1.0 | 4.0 | 0.00 | 0.08 | 0.08 | 99 | 1004.8 |
| 20260505193132 | 35 | 312 | 3.0 | 4.0 | 0.00 | 0.08 | 0.08 | 99 | 1004.9 |
| 20260505192132 | 35 | 21 | 1.0 | 3.0 | 0.00 | 0.08 | 0.08 | 99 | 1004.9 |
| 20260505191132 | 36 | 178 | 0.0 | 1.0 | 0.00 | 0.08 | 0.08 | 99 | 1004.8 |
| 20260505190132 | 36 | 182 | 0.0 | 1.0 | 0.00 | 0.08 | 0.08 | 99 | 1004.9 |
| 20260505185132 | 36 | 247 | 0.0 | 5.0 | 0.00 | 0.08 | 0.08 | 98 | 1004.8 |
| 20260505184132 | 36 | 223 | 0.0 | 2.0 | 0.00 | 0.08 | 0.08 | 97 | 1004.7 |
| 20260505183132 | 37 | 178 | 0.0 | 1.0 | 0.00 | 0.09 | 0.08 | 95 | 1004.6 |
| 20260505182132 | 38 | 178 | 0.0 | 1.0 | 0.00 | 0.09 | 0.08 | 94 | 1004.5 |
| 20260505181132 | 38 | 178 | 0.0 | 1.0 | 0.00 | 0.09 | 0.08 | 92 | 1004.3 |
| 20260505180132 | 39 | 223 | 0.0 | 2.0 | 0.00 | 0.09 | 0.08 | 92 | 1004.4 |
| 20260505175132 | 40 | 175 | 1.0 | 2.0 | 0.00 | 0.09 | 0.08 | 89 | 1004.3 |
| 20260505174132 | 40 | 198 | 0.0 | 0.0 | 0.00 | 0.09 | 0.08 | 87 | 1004.2 |
| 20260505173132 | 41 | 223 | 0.0 | 0.0 | 0.00 | 0.09 | 0.08 | 84 | 1004.2 |
| 20260505172132 | 42 | 21 | 0.0 | 0.0 | 0.00 | 0.09 | 0.08 | 82 | 1004.1 |
| 20260505171132 | 43 | 178 | 0.0 | 1.0 | 0.00 | 0.09 | 0.08 | 79 | 1004.1 |
| 20260505170132 | 43 | 178 | 0.0 | 2.0 | 0.00 | 0.09 | 0.08 | 77 | 1004.1 |
| 20260505165132 | 44 | 205 | 2.0 | 4.0 | 0.00 | 0.09 | 0.08 | 76 | 1004.1 |
| 20260505164132 | 44 | 232 | 2.0 | 4.0 | 0.00 | 0.09 | 0.08 | 73 | 1004.1 |
| 20260505163132 | 44 | 85 | 0.0 | 7.0 | 0.00 | 0.09 | 0.08 | 72 | 1004.1 |
| 20260505162132 | 44 | 348 | 2.0 | 8.0 | 0.00 | 0.09 | 0.08 | 72 | 1004.0 |
| 20260505161132 | 45 | 230 | 2.0 | 5.0 | 0.00 | 0.09 | 0.08 | 74 | 1004.0 |
| 20260505160132 | 45 | 227 | 3.0 | 6.0 | 0.00 | 0.09 | 0.08 | 74 | 1003.7 |